Time,TemperatureF,DewpointF,PressureIn,WindDirection,WindDirectionDegrees,WindSpeedMPH,WindSpeedGustMPH,Humidity,HourlyPrecipIn,Conditions,Clouds,dailyrainin,SoftwareType,DateUTC
2013-03-06 00:01:00,52.0,49.0,26.34,North,359,1.0,2.0,89,-99.99,,,-99.99,,2013-03-06 08:01:00,
2013-03-06 00:11:00,52.0,49.0,26.31,WSW,248,3.0,5.0,89,-99.99,,,-99.99,,2013-03-06 08:11:00,
2013-03-06 00:21:00,52.0,49.0,26.31,WSW,249,2.0,4.0,88,-99.99,,,-99.99,,2013-03-06 08:21:00,
2013-03-06 00:31:00,52.0,49.0,26.31,SW,226,2.0,4.0,88,-99.99,,,-99.99,,2013-03-06 08:31:00,
2013-03-06 00:42:00,52.0,49.0,26.31,WSW,245,1.0,4.0,88,-99.99,,,-99.99,,2013-03-06 08:42:00,
2013-03-06 00:52:00,52.0,49.0,26.31,WNW,284,2.0,3.0,89,-99.99,,,-99.99,,2013-03-06 08:52:00,
2013-03-06 01:01:00,52.0,49.0,26.31,WNW,284,2.0,3.0,89,-99.99,,,-99.99,,2013-03-06 09:01:00,
2013-03-06 01:12:00,51.0,48.0,26.31,SSE,162,1.0,3.0,89,-99.99,,,-99.99,,2013-03-06 09:12:00,
2013-03-06 01:21:00,51.0,48.0,26.34,ESE,121,0.0,2.0,90,-99.99,,,-99.99,,2013-03-06 09:21:00,
2013-03-06 01:31:00,51.0,48.0,26.34,WNW,284,1.0,3.0,91,-99.99,,,-99.99,,2013-03-06 09:31:00,
2013-03-06 01:41:00,51.0,48.0,26.34,South,181,1.0,2.0,91,-99.99,,,-99.99,,2013-03-06 09:41:00,
2013-03-06 01:51:00,51.0,48.0,26.34,South,180,2.0,4.0,90,-99.99,,,-99.99,,2013-03-06 09:51:00,
2013-03-06 02:01:00,51.0,48.0,26.31,South,170,2.0,4.0,89,-99.99,,,-99.99,,2013-03-06 10:01:00,
2013-03-06 02:11:00,51.0,48.0,26.31,SSW,209,1.0,3.0,89,-99.99,,,-99.99,,2013-03-06 10:11:00,
2013-03-06 02:21:00,51.0,48.0,26.31,SSW,201,1.0,1.0,89,-99.99,,,-99.99,,2013-03-06 10:21:00,
2013-03-06 02:31:00,51.0,48.0,26.31,South,188,0.0,1.0,89,-99.99,,,-99.99,,2013-03-06 10:31:00,
2013-03-06 02:41:00,51.0,48.0,26.31,ENE,58,1.0,2.0,90,-99.99,,,-99.99,,2013-03-06 10:41:00,
2013-03-06 02:51:00,50.0,47.0,26.31,ENE,64,2.0,3.0,91,-99.99,,,-99.99,,2013-03-06 10:51:00,
2013-03-06 03:01:00,50.0,47.0,26.31,ENE,64,2.0,3.0,91,-99.99,,,-99.99,,2013-03-06 11:01:00,
2013-03-06 03:11:00,50.0,47.0,26.31,NE,54,1.0,2.0,91,-99.99,,,-99.99,,2013-03-06 11:11:00,
2013-03-06 03:22:00,50.0,47.0,26.34,ENE,64,3.0,3.0,91,-99.99,,,-99.99,,2013-03-06 11:22:00,
2013-03-06 03:31:00,50.0,48.0,26.34,ENE,60,3.0,3.0,92,-99.99,,,-99.99,,2013-03-06 11:31:00,
2013-03-06 03:42:00,50.0,48.0,26.34,NE,54,3.0,4.0,92,-99.99,,,-99.99,,2013-03-06 11:42:00,
2013-03-06 03:52:00,49.0,47.0,26.34,ENE,57,3.0,4.0,93,-99.99,,,-99.99,,2013-03-06 11:52:00,
2013-03-06 04:01:00,49.0,47.0,26.34,NE,55,2.0,3.0,93,-99.99,,,-99.99,,2013-03-06 12:01:00,
2013-03-06 04:11:00,49.0,47.0,26.34,ENE,65,1.0,3.0,94,-99.99,,,-99.99,,2013-03-06 12:11:00,
2013-03-06 04:21:00,49.0,47.0,26.34,NE,52,2.0,3.0,94,-99.99,,,-99.99,,2013-03-06 12:21:00,
2013-03-06 04:32:00,49.0,47.0,26.34,ENE,68,2.0,3.0,94,-99.99,,,-99.99,,2013-03-06 12:32:00,
2013-03-06 04:42:00,49.0,47.0,26.34,NE,41,1.0,2.0,94,-99.99,,,-99.99,,2013-03-06 12:42:00,
2013-03-06 04:52:00,49.0,47.0,26.34,ENE,61,2.0,3.0,94,-99.99,,,-99.99,,2013-03-06 12:52:00,
2013-03-06 05:01:00,49.0,47.0,26.34,ENE,61,2.0,2.0,94,-99.99,,,-99.99,,2013-03-06 13:01:00,
2013-03-06 05:11:00,49.0,47.0,26.34,NE,53,1.0,2.0,94,-99.99,,,-99.99,,2013-03-06 13:11:00,
2013-03-06 05:21:00,49.0,47.0,26.34,ENE,60,2.0,2.0,94,-99.99,,,-99.99,,2013-03-06 13:21:00,
2013-03-06 05:31:00,49.0,47.0,26.37,NE,49,2.0,2.0,94,-99.99,,,-99.99,,2013-03-06 13:31:00,
2013-03-06 05:42:00,49.0,47.0,26.37,ENE,65,2.0,3.0,94,-99.99,,,-99.99,,2013-03-06 13:42:00,
2013-03-06 05:51:00,49.0,47.0,26.37,ENE,64,2.0,3.0,94,-99.99,,,-99.99,,2013-03-06 13:51:00,
2013-03-06 06:01:00,49.0,47.0,26.37,NE,53,3.0,4.0,94,-99.99,,,-99.99,,2013-03-06 14:01:00,
2013-03-06 06:11:00,49.0,47.0,26.34,NE,52,2.0,4.0,94,-99.99,,,-99.99,,2013-03-06 14:11:00,
2013-03-06 06:21:00,49.0,47.0,26.37,NE,54,3.0,4.0,94,-99.99,,,-99.99,,2013-03-06 14:21:00,
2013-03-06 06:32:00,49.0,47.0,26.34,NE,46,2.0,4.0,94,-99.99,,,-99.99,,2013-03-06 14:32:00,
2013-03-06 06:41:00,48.0,46.0,26.34,ENE,61,2.0,3.0,94,-99.99,,,-99.99,,2013-03-06 14:41:00,
2013-03-06 06:52:00,48.0,47.0,26.34,ENE,62,2.0,3.0,95,-99.99,,,-99.99,,2013-03-06 14:52:00,
2013-03-06 07:01:00,48.0,47.0,26.34,NE,47,3.0,4.0,95,-99.99,,,-99.99,,2013-03-06 15:01:00,
2013-03-06 07:11:00,47.0,46.0,26.34,NE,45,2.0,3.0,95,-99.99,,,-99.99,,2013-03-06 15:11:00,
2013-03-06 07:21:00,47.0,46.0,26.34,NE,44,2.0,3.0,95,-99.99,,,-99.99,,2013-03-06 15:21:00,
2013-03-06 07:32:00,47.0,46.0,26.34,ENE,60,2.0,3.0,95,-99.99,,,-99.99,,2013-03-06 15:32:00,
2013-03-06 07:41:00,48.0,47.0,26.34,ENE,65,2.0,3.0,95,-99.99,,,-99.99,,2013-03-06 15:41:00,
2013-03-06 07:52:00,48.0,47.0,26.34,ENE,65,2.0,3.0,95,-99.99,,,-99.99,,2013-03-06 15:52:00,
2013-03-06 08:01:00,50.0,49.0,26.37,SSW,202,0.0,1.0,95,-99.99,,,-99.99,,2013-03-06 16:01:00,
2013-03-06 08:11:00,50.0,48.0,26.37,ENE,67,2.0,3.0,93,-99.99,,,-99.99,,2013-03-06 16:11:00,
2013-03-06 08:21:00,51.0,49.0,26.37,ENE,75,2.0,4.0,92,-99.99,,,-99.99,,2013-03-06 16:21:00,
2013-03-06 08:32:00,52.0,48.0,26.31,ENE,60,3.0,5.0,86,-99.99,,,-99.99,,2013-03-06 16:32:00,
2013-03-06 08:41:00,53.0,47.0,26.28,NE,49,2.0,3.0,81,-99.99,,,-99.99,,2013-03-06 16:41:00,
2013-03-06 08:51:00,53.0,45.0,26.23,NE,42,1.0,3.0,75,-99.99,,,-99.99,,2013-03-06 16:51:00,
2013-03-06 09:01:00,54.0,45.0,26.20,NNE,18,1.0,3.0,72,-99.99,,,-99.99,,2013-03-06 17:01:00,
2013-03-06 09:11:00,55.0,45.0,26.20,ESE,116,2.0,4.0,69,-99.99,,,-99.99,,2013-03-06 17:11:00,
2013-03-06 09:21:00,55.0,45.0,26.20,North,350,4.0,7.0,68,-99.99,,,-99.99,,2013-03-06 17:21:00,
2013-03-06 09:31:00,55.0,45.0,26.20,NE,36,2.0,5.0,68,-99.99,,,-99.99,,2013-03-06 17:31:00,
2013-03-06 09:41:00,55.0,44.0,26.20,SSE,156,2.0,6.0,66,-99.99,,,-99.99,,2013-03-06 17:41:00,
2013-03-06 09:52:00,57.0,44.0,26.17,SSE,158,2.0,4.0,62,-99.99,,,-99.99,,2013-03-06 17:52:00,
2013-03-06 10:01:00,56.0,42.0,26.14,South,186,3.0,6.0,60,-99.99,,,-99.99,,2013-03-06 18:01:00,
2013-03-06 10:28:00,56.0,42.0,26.14,SW,224,4.0,9.0,60,-99.99,,,-99.99,,2013-03-06 18:28:00,
2013-03-06 10:42:00,56.0,42.0,26.11,SW,236,5.0,8.0,60,-99.99,,,-99.99,,2013-03-06 18:42:00,
2013-03-06 10:52:00,58.0,43.0,26.08,WSW,254,4.0,8.0,57,-99.99,,,-99.99,,2013-03-06 18:52:00,
2013-03-06 11:02:00,58.0,42.0,26.11,SW,218,3.0,7.0,55,-99.99,,,-99.99,,2013-03-06 19:02:00,
2013-03-06 11:11:00,59.0,42.0,26.11,South,191,5.0,9.0,53,-99.99,,,-99.99,,2013-03-06 19:11:00,
2013-03-06 11:21:00,57.0,41.0,26.11,WSW,250,5.0,11.0,54,-99.99,,,-99.99,,2013-03-06 19:21:00,
2013-03-06 11:32:00,58.0,40.0,26.08,SSW,211,5.0,8.0,52,-99.99,,,-99.99,,2013-03-06 19:32:00,
2013-03-06 11:42:00,59.0,41.0,26.08,SSW,196,4.0,11.0,51,-99.99,,,-99.99,,2013-03-06 19:42:00,
2013-03-06 11:52:00,59.0,40.0,26.08,SSW,209,4.0,8.0,50,-99.99,,,-99.99,,2013-03-06 19:52:00,
2013-03-06 12:01:00,59.0,40.0,26.08,SSW,199,4.0,9.0,50,-99.99,,,-99.99,,2013-03-06 20:01:00,
2013-03-06 12:11:00,60.0,41.0,26.08,SSW,208,7.0,12.0,50,-99.99,,,-99.99,,2013-03-06 20:11:00,
2013-03-06 12:22:00,59.0,41.0,26.11,SW,219,8.0,15.0,52,-99.99,,,-99.99,,2013-03-06 20:22:00,
2013-03-06 12:32:00,58.0,41.0,26.11,SW,229,9.0,16.0,54,-99.99,,,-99.99,,2013-03-06 20:32:00,
2013-03-06 12:42:00,58.0,41.0,26.11,SW,229,8.0,13.0,54,-99.99,,,-99.99,,2013-03-06 20:42:00,
2013-03-06 12:52:00,58.0,41.0,26.11,SW,229,8.0,13.0,54,-99.99,,,-99.99,,2013-03-06 20:52:00,
2013-03-06 13:01:00,58.0,42.0,26.11,SSW,211,8.0,12.0,55,-99.99,,,-99.99,,2013-03-06 21:01:00,
2013-03-06 13:11:00,58.0,42.0,26.11,SW,215,8.0,12.0,55,-99.99,,,-99.99,,2013-03-06 21:11:00,
2013-03-06 13:22:00,58.0,42.0,26.11,WSW,237,8.0,15.0,55,-99.99,,,-99.99,,2013-03-06 21:22:00,
2013-03-06 13:32:00,58.0,42.0,26.11,WSW,237,8.0,15.0,55,-99.99,,,-99.99,,2013-03-06 21:32:00,
2013-03-06 13:42:00,58.0,41.0,26.08,SW,219,8.0,14.0,53,-99.99,,,-99.99,,2013-03-06 21:42:00,
2013-03-06 13:51:00,58.0,41.0,26.08,SW,231,8.0,14.0,54,-99.99,,,-99.99,,2013-03-06 21:51:00,
2013-03-06 14:01:00,59.0,42.0,26.08,SW,233,8.0,13.0,53,-99.99,,,-99.99,,2013-03-06 22:01:00,
2013-03-06 14:11:00,59.0,42.0,26.08,SW,219,8.0,13.0,53,-99.99,,,-99.99,,2013-03-06 22:11:00,
2013-03-06 14:21:00,59.0,41.0,26.05,SW,216,6.0,10.0,52,-99.99,,,-99.99,,2013-03-06 22:21:00,
2013-03-06 14:31:00,59.0,41.0,26.05,SSW,198,6.0,12.0,52,-99.99,,,-99.99,,2013-03-06 22:31:00,
2013-03-06 14:41:00,59.0,41.0,26.05,SW,227,7.0,12.0,52,-99.99,,,-99.99,,2013-03-06 22:41:00,
2013-03-06 14:51:00,59.0,41.0,26.05,WSW,242,8.0,12.0,52,-99.99,,,-99.99,,2013-03-06 22:51:00,
2013-03-06 15:01:00,59.0,42.0,26.08,SW,217,8.0,14.0,54,-99.99,,,-99.99,,2013-03-06 23:01:00,
2013-03-06 15:11:00,59.0,42.0,26.08,WSW,239,9.0,15.0,54,-99.99,,,-99.99,,2013-03-06 23:11:00,
2013-03-06 15:21:00,58.0,42.0,26.08,WSW,240,10.0,16.0,56,-99.99,,,-99.99,,2013-03-06 23:21:00,
2013-03-06 15:31:00,58.0,42.0,26.11,SW,217,9.0,15.0,56,-99.99,,,-99.99,,2013-03-06 23:31:00,
2013-03-06 15:41:00,58.0,43.0,26.11,SSW,211,9.0,17.0,57,-99.99,,,-99.99,,2013-03-06 23:41:00,
2013-03-06 15:52:00,58.0,43.0,26.11,SSW,211,9.0,17.0,57,-99.99,,,-99.99,,2013-03-06 23:52:00,
2013-03-06 16:01:00,58.0,43.0,26.11,SSW,212,8.0,13.0,58,-99.99,,,-99.99,,2013-03-07 00:01:00,
2013-03-06 16:11:00,58.0,44.0,26.11,SSW,209,8.0,14.0,59,-99.99,,,-99.99,,2013-03-07 00:11:00,
2013-03-06 16:21:00,58.0,45.0,26.14,SSW,205,7.0,11.0,61,-99.99,,,-99.99,,2013-03-07 00:21:00,
2013-03-06 16:32:00,58.0,45.0,26.14,SSW,209,7.0,11.0,62,-99.99,,,-99.99,,2013-03-07 00:32:00,
2013-03-06 16:41:00,58.0,45.0,26.14,SSW,209,7.0,11.0,62,-99.99,,,-99.99,,2013-03-07 00:41:00,
2013-03-06 16:51:00,58.0,45.0,26.14,SW,221,7.0,10.0,62,-99.99,,,-99.99,,2013-03-07 00:51:00,
2013-03-06 17:01:00,57.0,45.0,26.14,SSW,203,7.0,9.0,63,-99.99,,,-99.99,,2013-03-07 01:01:00,
2013-03-06 17:11:00,57.0,45.0,26.14,SSW,202,7.0,11.0,63,-99.99,,,-99.99,,2013-03-07 01:11:00,
2013-03-06 17:21:00,57.0,44.0,26.14,SSW,202,5.0,9.0,62,-99.99,,,-99.99,,2013-03-07 01:21:00,
2013-03-06 17:31:00,57.0,44.0,26.11,WSW,241,5.0,8.0,61,-99.99,,,-99.99,,2013-03-07 01:31:00,
2013-03-06 17:41:00,56.0,42.0,26.08,WSW,248,4.0,9.0,59,-99.99,,,-99.99,,2013-03-07 01:41:00,
2013-03-06 17:51:00,56.0,42.0,26.08,West,269,2.0,4.0,59,-99.99,,,-99.99,,2013-03-07 01:51:00,
2013-03-06 18:01:00,56.0,43.0,26.08,West,280,2.0,4.0,61,-99.99,,,-99.99,,2013-03-07 02:01:00,
2013-03-06 18:11:00,56.0,43.0,26.05,NNW,333,0.0,2.0,61,-99.99,,,-99.99,,2013-03-07 02:11:00,
2013-03-06 18:21:00,55.0,42.0,26.05,WSW,249,1.0,2.0,61,-99.99,,,-99.99,,2013-03-07 02:21:00,
2013-03-06 18:31:00,55.0,43.0,26.08,SSE,151,1.0,2.0,63,-99.99,,,-99.99,,2013-03-07 02:31:00,
2013-03-06 18:41:00,55.0,43.0,26.08,SSE,151,1.0,2.0,63,-99.99,,,-99.99,,2013-03-07 02:41:00,
2013-03-06 18:51:00,55.0,43.0,26.08,SSE,151,1.0,2.0,63,-99.99,,,-99.99,,2013-03-07 02:51:00,
2013-03-06 19:01:00,53.0,43.0,26.11,NE,55,2.0,3.0,68,-99.99,,,-99.99,,2013-03-07 03:01:00,
2013-03-06 19:11:00,52.0,43.0,26.11,NE,47,3.0,3.0,70,-99.99,,,-99.99,,2013-03-07 03:11:00,
2013-03-06 19:21:00,51.0,42.0,26.14,NE,47,3.0,4.0,71,-99.99,,,-99.99,,2013-03-07 03:21:00,
2013-03-06 19:31:00,50.0,42.0,26.14,NE,51,3.0,5.0,73,-99.99,,,-99.99,,2013-03-07 03:31:00,
2013-03-06 19:41:00,50.0,42.0,26.14,NE,49,4.0,5.0,75,-99.99,,,-99.99,,2013-03-07 03:41:00,
2013-03-06 19:51:00,49.0,42.0,26.17,NE,46,4.0,5.0,76,-99.99,,,-99.99,,2013-03-07 03:51:00,
2013-03-06 20:01:00,48.0,41.0,26.14,NE,51,4.0,5.0,77,-99.99,,,-99.99,,2013-03-07 04:01:00,
2013-03-06 20:11:00,48.0,41.0,26.17,NE,52,4.0,5.0,78,-99.99,,,-99.99,,2013-03-07 04:11:00,
2013-03-06 20:21:00,47.0,41.0,26.17,ENE,58,4.0,5.0,80,-99.99,,,-99.99,,2013-03-07 04:21:00,
2013-03-06 20:31:00,46.0,41.0,26.17,NE,52,3.0,5.0,81,-99.99,,,-99.99,,2013-03-07 04:31:00,
2013-03-06 20:41:00,46.0,41.0,26.20,NE,52,5.0,6.0,82,-99.99,,,-99.99,,2013-03-07 04:41:00,
2013-03-06 20:51:00,46.0,41.0,26.20,NE,42,3.0,5.0,82,-99.99,,,-99.99,,2013-03-07 04:51:00,
2013-03-06 21:01:00,46.0,41.0,26.20,NE,42,3.0,5.0,82,-99.99,,,-99.99,,2013-03-07 05:01:00,
2013-03-06 21:12:00,46.0,41.0,26.20,NE,50,3.0,5.0,82,-99.99,,,-99.99,,2013-03-07 05:12:00,
2013-03-06 21:22:00,46.0,41.0,26.20,ENE,61,4.0,5.0,82,-99.99,,,-99.99,,2013-03-07 05:22:00,
2013-03-06 21:31:00,46.0,41.0,26.20,NE,47,5.0,7.0,82,-99.99,,,-99.99,,2013-03-07 05:31:00,
2013-03-06 21:41:00,46.0,41.0,26.20,NE,47,5.0,7.0,82,-99.99,,,-99.99,,2013-03-07 05:41:00,
2013-03-06 21:52:00,46.0,41.0,26.17,NE,50,4.0,6.0,81,-99.99,,,-99.99,,2013-03-07 05:52:00,
2013-03-06 22:01:00,46.0,41.0,26.20,ENE,59,4.0,7.0,82,-99.99,,,-99.99,,2013-03-07 06:01:00,
2013-03-06 22:11:00,46.0,41.0,26.20,ENE,60,4.0,7.0,82,-99.99,,,-99.99,,2013-03-07 06:11:00,
2013-03-06 22:21:00,45.0,40.0,26.20,ENE,60,4.0,5.0,83,-99.99,,,-99.99,,2013-03-07 06:21:00,
2013-03-06 22:31:00,45.0,40.0,26.20,NE,53,2.0,5.0,83,-99.99,,,-99.99,,2013-03-07 06:31:00,
2013-03-06 22:41:00,45.0,40.0,26.20,NE,49,3.0,5.0,84,-99.99,,,-99.99,,2013-03-07 06:41:00,
2013-03-06 22:51:00,46.0,41.0,26.20,ENE,67,2.0,4.0,84,-99.99,,,-99.99,,2013-03-07 06:51:00,
2013-03-06 23:01:00,46.0,41.0,26.20,ENE,67,2.0,4.0,84,-99.99,,,-99.99,,2013-03-07 07:01:00,
2013-03-06 23:11:00,46.0,41.0,26.20,ENE,57,3.0,5.0,84,-99.99,,,-99.99,,2013-03-07 07:11:00,
2013-03-06 23:21:00,46.0,41.0,26.20,ENE,62,3.0,4.0,83,-99.99,,,-99.99,,2013-03-07 07:21:00,
2013-03-06 23:31:00,46.0,41.0,26.20,ENE,61,3.0,4.0,83,-99.99,,,-99.99,,2013-03-07 07:31:00,
2013-03-06 23:41:00,47.0,42.0,26.20,NE,52,4.0,6.0,83,-99.99,,,-99.99,,2013-03-07 07:41:00,
2013-03-06 23:52:00,48.0,43.0,26.20,ENE,62,2.0,4.0,82,-99.99,,,-99.99,,2013-03-07 07:52:00,